When you browse on this site, cookies collect data to enhance your experience and personalize the content and advertising you see.
Visit our Privacy Policy to learn more. By continuing to use the site, you agree to this use of cookies and data.
  • In Romania
  • List of Countries
  • For 7 days
  • Water Temperature
  • Satellite Maps
  • Weather Map
  • Weather Widgets
  • user-avatar
    Login

    Hourly Weather Seohara

    Today, 17 February, Sunday

    Time Temperature Precipitation Wind Pressure Humidity
    00:00 +13°C° 0 mm 3 mps 741 mmHg 90%
    01:00 +13°C° 0 mm 3 mps 741 mmHg 91%
    02:00 +12°C° 0 mm 3 mps 741 mmHg 93%
    03:00 +12°C° 0 mm 3 mps 741 mmHg 93%
    04:00 +12°C° 0 mm 3 mps 741 mmHg 93%
    05:00 +11°C° 0 mm 3 mps 740 mmHg 93%
    06:00 +12°C° 0 mm 3 mps 740 mmHg 90%
    07:00 +13°C° 0 mm 3 mps 740 mmHg 87%
    08:00 +14°C° 0 mm 4 mps 740 mmHg 83%
    09:00 +17°C° 0 mm 4 mps 740 mmHg 74%
    10:00 +19°C° 0 mm 4 mps 740 mmHg 65%
    11:00 +21°C° 0 mm 5 mps 741 mmHg 57%
    12:00 +22°C° 0 mm 5 mps 740 mmHg 54%
    13:00 +23°C° 0 mm 5 mps 739 mmHg 51%
    14:00 +23°C° 0 mm 5 mps 739 mmHg 48%
    15:00 +22°C° 0 mm 5 mps 738 mmHg 53%
    16:00 +21°C° 0 mm 4 mps 738 mmHg 58%
    17:00 +20°C° 0 mm 3 mps 738 mmHg 63%
    18:00 +19°C° 0 mm 3 mps 738 mmHg 68%
    19:00 +17°C° 0 mm 3 mps 738 mmHg 72%
    20:00 +16°C° 0 mm 3 mps 739 mmHg 76%
    21:00 +16°C° 0 mm 2 mps 739 mmHg 76%
    22:00 +16°C° 0 mm 2 mps 739 mmHg 76%
    23:00 +16°C° 0 mm 2 mps 739 mmHg 76%

    Tomorrow, 18 February, Monday

    Time Temperature Precipitation Wind Pressure Humidity
    00:00 +15°C° 0 mm 2 mps 738 mmHg 76%
    01:00 +15°C° 0 mm 2 mps 738 mmHg 77%
    02:00 +15°C° 0 mm 2 mps 738 mmHg 77%
    03:00 +14°C° 0 mm 2 mps 738 mmHg 80%
    04:00 +14°C° 0 mm 2 mps 737 mmHg 83%
    05:00 +13°C° 0 mm 2 mps 737 mmHg 85%
    06:00 +14°C° 0 mm 2 mps 738 mmHg 81%
    07:00 +15°C° 0 mm 2 mps 738 mmHg 77%
    08:00 +16°C° 0 mm 2 mps 738 mmHg 73%
    09:00 +18°C° 0 mm 2 mps 739 mmHg 63%
    10:00 +20°C° 0 mm 2 mps 739 mmHg 53%
    11:00 +24°C° 0 mm 2 mps 739 mmHg 43%
    12:00 +24°C° 0 mm 3 mps 739 mmHg 42%
    13:00 +25°C° 0 mm 3 mps 738 mmHg 41%
    14:00 +25°C° 0 mm 4 mps 738 mmHg 39%
    15:00 +24°C° 0 mm 3 mps 737 mmHg 46%
    16:00 +23°C° 0 mm 2 mps 737 mmHg 53%
    17:00 +21°C° 0 mm 1 mps 737 mmHg 60%
    18:00 +21°C° 0 mm 1 mps 738 mmHg 60%
    19:00 +20°C° 0 mm 1 mps 738 mmHg 60%
    20:00 +19°C° 0 mm 1 mps 738 mmHg 60%
    21:00 +19°C° 0.1 mm 1 mps 739 mmHg 62%
    22:00 +18°C° 0.1 mm 2 mps 739 mmHg 65%
    23:00 +17°C° 0.1 mm 2 mps 739 mmHg 68%

    Day after tomorrow, 19 February, Tuesday

    Time Temperature Precipitation Wind Pressure Humidity
    00:00 +17°C° 0.1 mm 3 mps 739 mmHg 71%
    01:00 +16°C° 0.1 mm 3 mps 739 mmHg 74%
    02:00 +14°C° 0.1 mm 3 mps 738 mmHg 77%
    03:00 +14°C° 0.2 mm 3 mps 739 mmHg 78%
    04:00 +14°C° 0.2 mm 3 mps 739 mmHg 80%
    05:00 +13°C° 0.2 mm 3 mps 739 mmHg 81%
    06:00 +14°C° 0 mm 3 mps 740 mmHg 78%
    07:00 +16°C° 0 mm 3 mps 741 mmHg 75%
    08:00 +16°C° 0 mm 3 mps 742 mmHg 72%
    09:00 +18°C° 0 mm 3 mps 742 mmHg 67%
    10:00 +20°C° 0 mm 2 mps 742 mmHg 61%
    11:00 +21°C° 0 mm 2 mps 743 mmHg 55%
    12:00 +22°C° 0.1 mm 3 mps 742 mmHg 52%
    13:00 +24°C° 0.1 mm 3 mps 742 mmHg 49%
    14:00 +25°C° 0.1 mm 4 mps 741 mmHg 46%
    15:00 +24°C° 0 mm 3 mps 741 mmHg 51%
    16:00 +22°C° 0 mm 3 mps 741 mmHg 55%
    17:00 +23°C° 0 mm 2 mps 741 mmHg 59%
    18:00 +20°C° 0 mm 2 mps 742 mmHg 61%
    19:00 +19°C° 0 mm 2 mps 742 mmHg 62%
    20:00 +18°C° 0 mm 2 mps 743 mmHg 64%
    21:00 +17°C° 0 mm 2 mps 743 mmHg 63%
    22:00 +17°C° 0 mm 2 mps 743 mmHg 62%
    23:00 +17°C° 0 mm 2 mps 743 mmHg 62%

    20 February, Wednesday

    Time Temperature Precipitation Wind Pressure Humidity
    00:00 +17°C° 0 mm 2 mps 743 mmHg 58%
    01:00 +17°C° 0 mm 2 mps 743 mmHg 55%
    02:00 +17°C° 0 mm 2 mps 743 mmHg 51%
    03:00 +17°C° 0 mm 2 mps 742 mmHg 48%
    04:00 +16°C° 0 mm 2 mps 742 mmHg 45%
    05:00 +16°C° 0 mm 2 mps 742 mmHg 41%
    06:00 +17°C° 0 mm 2 mps 742 mmHg 41%
    07:00 +19°C° 0 mm 1 mps 743 mmHg 42%
    08:00 +19°C° 0 mm 1 mps 744 mmHg 42%
    09:00 +21°C° 0 mm 1 mps 744 mmHg 40%
    10:00 +22°C° 0 mm 1 mps 744 mmHg 38%
    11:00 +23°C° 0 mm 1 mps 745 mmHg 36%
    12:00 +24°C° 0 mm 1 mps 744 mmHg 38%
    13:00 +24°C° 0 mm 1 mps 744 mmHg 39%
    14:00 +25°C° 0 mm 1 mps 743 mmHg 40%
    15:00 +23°C° 0 mm 1 mps 743 mmHg 49%
    16:00 +22°C° 0 mm 1 mps 743 mmHg 59%
    17:00 +21°C° 0 mm 1 mps 743 mmHg 68%
    18:00 +20°C° 0 mm 1 mps 743 mmHg 68%
    19:00 +20°C° 0 mm 1 mps 744 mmHg 67%
    20:00 +19°C° 0 mm 1 mps 744 mmHg 67%
    21:00 +19°C° 0 mm 1 mps 744 mmHg 65%
    22:00 +19°C° 0 mm 1 mps 744 mmHg 63%
    23:00 +18°C° 0 mm 1 mps 744 mmHg 61%

    21 February, Thursday

    Time Temperature Precipitation Wind Pressure Humidity
    00:00 +17°C° 0 mm 2 mps 744 mmHg 54%
    01:00 +18°C° 0 mm 2 mps 744 mmHg 47%
    02:00 +18°C° 0 mm 2 mps 743 mmHg 40%
    03:00 +18°C° 0 mm 2 mps 743 mmHg 39%
    04:00 +18°C° 0 mm 2 mps 743 mmHg 38%
    05:00 +18°C° 0 mm 1 mps 743 mmHg 37%
    06:00 +19°C° 0 mm 1 mps 744 mmHg 41%
    07:00 +20°C° 0 mm 1 mps 745 mmHg 44%
    08:00 +20°C° 0 mm 1 mps 745 mmHg 47%
    09:00 +22°C° 0 mm 1 mps 745 mmHg 44%
    10:00 +24°C° 0 mm 1 mps 746 mmHg 41%
    11:00 +26°C° 0 mm 1 mps 746 mmHg 38%
    12:00 +26°C° 0 mm 2 mps 745 mmHg 40%
    13:00 +27°C° 0 mm 4 mps 744 mmHg 42%
    14:00 +27°C° 0 mm 5 mps 744 mmHg 44%
    15:00 +26°C° 0 mm 4 mps 743 mmHg 48%
    16:00 +25°C° 0 mm 3 mps 743 mmHg 51%
    17:00 +24°C° 0 mm 2 mps 742 mmHg 55%
    18:00 +23°C° 0 mm 2 mps 743 mmHg 54%
    19:00 +23°C° 0 mm 2 mps 743 mmHg 54%
    20:00 +21°C° 0 mm 2 mps 744 mmHg 53%
    21:00 +21°C° 0 mm 2 mps 744 mmHg 53%
    22:00 +21°C° 0 mm 1 mps 744 mmHg 52%
    23:00 +21°C° 0 mm 1 mps 744 mmHg 52%

    22 February, Friday

    Time Temperature Precipitation Wind Pressure Humidity
    00:00 +21°C° 0 mm 1 mps 743 mmHg 53%
    01:00 +20°C° 0 mm 1 mps 743 mmHg 53%
    02:00 +19°C° 0 mm 2 mps 742 mmHg 54%
    03:00 +18°C° 0.1 mm 2 mps 742 mmHg 57%
    04:00 +17°C° 0.1 mm 2 mps 742 mmHg 61%
    05:00 +17°C° 0.1 mm 2 mps 742 mmHg 64%
    06:00 +17°C° 0.1 mm 2 mps 742 mmHg 63%
    07:00 +18°C° 0.1 mm 2 mps 743 mmHg 62%
    08:00 +19°C° 0.1 mm 2 mps 743 mmHg 61%
    09:00 +21°C° 0.1 mm 2 mps 743 mmHg 55%
    10:00 +25°C° 0.1 mm 2 mps 743 mmHg 49%
    11:00 +27°C° 0.1 mm 3 mps 743 mmHg 42%
    12:00 +28°C° 0 mm 3 mps 743 mmHg 41%
    13:00 +29°C° 0 mm 3 mps 742 mmHg 39%
    14:00 +29°C° 0 mm 3 mps 741 mmHg 37%
    15:00 +28°C° 0 mm 3 mps 741 mmHg 43%
    16:00 +26°C° 0 mm 3 mps 741 mmHg 50%
    17:00 +25°C° 0 mm 3 mps 740 mmHg 56%
    18:00 +22°C° 0.1 mm 3 mps 741 mmHg 57%
    19:00 +21°C° 0.1 mm 2 mps 741 mmHg 57%
    20:00 +20°C° 0.1 mm 2 mps 742 mmHg 58%
    21:00 +19°C° 0 mm 2 mps 742 mmHg 59%
    22:00 +19°C° 0 mm 2 mps 742 mmHg 59%
    23:00 +18°C° 0 mm 2 mps 742 mmHg 60%
    Show more